Location: Izdebno
(52.6670°N, 16.2170°E)
Time: 04:34:53
(UTC+02:00)

SR - Pass Details

Date: 26 February 2024
Orbit: 577 x 862 km, 66.7° (Epoch: 22 April)

Event Time Altitude Azimuth Distance (km) Brightness Sun altitude
Rises 15:09:22 0° 208° (SSW) 3,438 ? 17.5°
Reaches altitude 10° 15:11:53 10° 207° (SSW) 2,499 ? 17.2°
Maximum altitude 15:17:40 70° 125° (SE) 900 ? 16.5°
Drops below altitude 10° 15:23:14 10° 43° (NE) 2,408 ? 15.9°
Sets 15:25:37 0° 41° (NE) 3,304 ? 15.6°
